Time[GMT],current_u[cm/s](10m),current_v[cm/s](10m),current_u[cm/s](14m),current_v[cm/s](14m),current_u[cm/s](18m),current_v[cm/s](18m),current_u[cm/s](22m),current_v[cm/s](22m),current_u[cm/s](26m),current_v[cm/s](26m),current_u[cm/s](30m),current_v[cm/s](30m),current_u[cm/s](34m),current_v[cm/s](34m),current_u[cm/s](38m),current_v[cm/s](38m),current_u[cm/s](42m),current_v[cm/s](42m),current_u[cm/s](46m),current_v[cm/s](46m),current_u[cm/s](50m),current_v[cm/s](50m),current_u[cm/s](54m),current_v[cm/s](54m),current_u[cm/s](58m),current_v[cm/s](58m)
2010-10-13 23:00,31.29,2.63,31.27,-2.37,30.59,-4.75,29.91,-5.99,28.62,-6.57,21.76,-2.60,13.73,3.63,6.77,3.61,0.72,5.10,-2.97,8.20,0.29,9.86,5.19,12.00,5.11,10.83
2010-10-14 00:00,28.71,1.47,28.49,0.05,27.23,-1.35,25.45,0.85,23.93,0.72,17.09,0.63,11.38,5.66,8.78,8.55,5.57,7.42,3.71,8.45,3.67,8.23,6.62,11.37,5.32,8.29
2010-10-14 01:00,35.50,-1.16,33.97,-3.47,30.46,-4.27,28.22,-4.08,29.99,-2.64,25.26,2.25,22.57,2.93,15.68,4.81,8.97,2.47,8.41,1.16,10.00,3.59,9.76,5.50,7.13,2.36
2010-10-14 02:00,27.95,-0.62,29.70,-1.26,31.47,-2.00,33.42,-0.82,30.71,0.28,23.94,-0.42,18.13,3.53,15.01,5.34,4.74,3.44,4.67,4.77,5.04,6.02,1.42,8.11,0.36,6.35
2010-10-14 03:00,19.24,-10.50,19.34,-9.75,20.38,-10.49,21.74,-10.51,19.66,-7.26,16.46,-6.62,10.91,-4.67,7.94,-2.30,3.45,-1.51,-3.95,-1.45,-2.44,-5.28,-1.49,-4.59,-1.71,-3.82
2010-10-14 04:00,12.74,6.36,13.57,5.66,17.37,5.09,18.70,6.61,20.91,7.97,21.10,10.94,17.63,10.36,8.74,9.79,6.98,11.57,4.73,12.90,1.05,12.68,0.80,9.90,1.23,10.23
2010-10-14 05:00,9.88,0.02,14.23,-1.02,16.72,-0.62,18.30,1.50,16.33,2.91,18.53,2.50,12.62,2.06,4.68,2.90,2.40,7.97,3.88,4.23,0.78,6.36,-0.76,5.92,1.99,2.13
2010-10-14 06:00,6.72,1.61,9.64,-0.25,13.52,-1.43,15.81,-0.36,16.18,-0.56,16.44,-0.38,9.53,-0.60,4.67,4.04,2.49,7.27,-0.35,5.21,-4.55,2.44,-4.78,-2.20,-5.36,-1.64
2010-10-14 07:00,8.43,-5.07,9.88,-6.53,11.81,-6.71,13.96,-7.34,12.59,-6.90,12.07,-7.98,4.36,-3.22,3.21,2.59,-1.94,-0.87,-6.85,-1.86,-8.39,-6.67,-9.94,-8.88,-12.06,-9.81
2010-10-14 08:00,21.86,-8.40,23.65,-8.10,23.50,-9.39,21.62,-10.45,15.97,-9.26,9.32,-4.92,5.47,-1.66,0.21,-2.54,-9.57,-3.99,-14.01,-5.58,-13.50,-4.81,-14.87,-2.91,-17.14,-1.90
2010-10-14 09:00,25.97,1.93,28.64,-0.11,28.17,-2.12,20.94,-1.90,11.49,2.36,7.81,2.14,-2.97,-1.27,-15.43,1.92,-18.04,3.05,-15.88,3.87,-18.34,4.10,-22.37,6.17,-20.79,8.29
2010-10-14 10:00,28.37,-4.97,27.70,-5.17,26.54,-6.22,17.94,-5.26,13.34,0.29,15.08,-0.36,5.17,-2.78,-4.19,-3.91,-9.13,-1.89,-12.34,2.39,-12.75,7.47,-12.51,10.25,-9.28,8.05
2010-10-14 11:00,37.01,-7.90,38.53,-9.55,37.02,-10.82,34.68,-11.38,27.82,-9.60,18.12,-5.52,13.52,-5.80,7.45,-4.21,2.42,-1.18,0.40,1.88,-1.64,5.36,-3.11,6.49,-3.21,10.11
2010-10-14 12:00,35.80,-13.45,37.42,-16.21,38.79,-15.20,38.89,-15.90,35.43,-16.89,28.75,-13.91,22.49,-8.43,15.45,-7.43,9.56,-4.33,5.04,0.93,4.83,5.65,6.99,5.02,4.33,-0.22
2010-10-14 13:00,35.09,-9.18,36.23,-9.17,37.11,-9.33,39.05,-8.47,37.69,-9.17,33.24,-13.25,27.52,-10.73,21.39,-6.04,14.22,-2.79,9.52,-0.18,7.85,2.36,9.63,0.16,6.20,-3.84
2010-10-14 14:00,25.52,12.94,26.84,12.69,27.09,12.55,27.12,12.46,27.71,12.94,27.13,10.59,18.23,8.25,10.55,11.45,3.91,15.37,2.16,21.11,0.10,23.96,-2.04,17.62,-6.70,12.85
2010-10-14 15:00,19.65,-3.21,20.91,-3.99,21.58,-4.53,22.42,-4.91,23.25,-4.88,22.70,-5.87,16.29,-8.54,10.13,-8.12,3.76,-5.48,2.57,-2.80,3.83,0.79,-1.10,-1.25,-6.71,-6.71
2010-10-14 16:00,14.73,-0.56,14.01,-3.16,12.17,-3.27,12.48,-3.60,12.35,-4.26,14.54,-4.26,10.78,-7.11,2.84,-6.26,-0.64,-3.93,-5.99,-0.88,-2.34,0.16,-6.37,-3.91,-9.43,-5.20
2010-10-14 17:00,15.93,-6.56,15.32,-7.36,14.79,-8.76,14.53,-8.94,14.71,-9.20,15.52,-8.76,11.29,-10.70,4.36,-8.32,3.03,-7.66,0.93,-5.77,2.46,-5.33,-3.32,-9.48,-4.94,-9.63
2010-10-14 18:00,16.80,-2.36,16.17,-5.25,15.28,-6.13,15.18,-6.88,15.14,-7.83,14.98,-8.71,9.72,-7.41,4.17,-4.73,2.53,-3.02,-0.60,-0.80,1.57,-2.57,-3.95,-2.17,-6.78,-2.47
2010-10-14 19:00,12.70,-5.10,12.20,-7.74,11.97,-8.74,12.62,-9.91,11.53,-10.84,6.12,-8.65,-0.43,-7.93,-3.07,-8.89,-8.38,-8.85,-11.97,-9.78,-13.30,-9.85,-16.17,-6.72,-17.40,-6.45
2010-10-14 20:00,17.71,-6.26,17.32,-8.87,16.77,-9.86,16.51,-10.77,12.51,-10.25,3.70,-8.20,-4.19,-13.69,-9.89,-13.03,-13.71,-12.05,-16.16,-10.77,-17.16,-10.54,-16.72,-9.89,-14.02,-9.53
2010-10-14 21:00,29.86,-1.11,30.54,-4.56,26.75,-5.85,24.29,-4.89,16.62,-3.56,4.91,-5.15,-2.15,-3.74,-9.31,-6.00,-12.53,-6.72,-17.72,-2.79,-17.13,-1.58,-20.58,1.38,-20.28,1.05
2010-10-14 22:00,31.55,-0.11,31.10,-3.25,27.62,-7.06,24.73,-4.98,19.76,-3.59,11.67,-6.23,0.51,-6.51,-4.74,-3.44,-11.63,-2.61,-12.43,-0.55,-15.70,1.43,-18.17,1.34,-14.42,1.69
2010-10-14 23:00,30.17,6.16,31.15,3.83,29.56,0.67,26.32,-2.54,19.23,1.87,14.98,3.98,4.90,5.77,0.01,6.14,-5.72,9.07,-11.11,10.44,-15.45,12.53,-15.11,11.69,-13.98,9.93
2010-10-15 00:00,34.99,7.12,34.44,5.40,34.46,2.81,32.64,-0.63,26.36,-2.32,24.20,4.13,16.31,6.97,7.33,8.55,0.21,10.15,-4.45,13.70,-5.48,14.76,-5.27,12.22,-3.28,9.98
2010-10-15 01:00,38.76,4.14,38.66,3.39,37.58,1.73,36.74,-0.80,29.36,-1.88,21.75,3.22,16.00,5.52,9.14,6.57,3.06,7.85,-3.40,10.78,-4.60,11.69,-4.61,8.46,-5.93,6.52
2010-10-15 02:00,36.01,3.56,36.11,2.86,36.11,2.14,34.97,-0.79,27.63,-3.11,22.35,-2.85,20.14,0.16,15.27,4.07,10.82,6.53,6.16,7.18,4.24,8.08,3.25,5.72,1.19,2.73
2010-10-15 03:00,19.46,0.69,19.53,0.82,19.39,0.57,18.97,0.24,11.39,-2.35,7.06,0.05,9.26,1.09,3.58,2.38,-1.21,3.50,-2.83,4.80,-4.51,7.03,-6.26,5.49,-7.28,2.18
2010-10-15 04:00,16.68,-0.11,17.06,0.00,15.64,0.95,14.67,-1.10,12.53,-2.34,11.54,-2.52,7.38,-0.69,3.86,2.15,-3.23,1.47,-6.58,-1.37,-6.98,0.39,-9.09,-3.13,-10.18,-2.61
2010-10-15 05:00,10.91,-2.49,11.18,-2.72,12.39,-4.04,13.38,-4.59,12.27,-4.70,9.84,-6.02,8.64,-5.12,4.73,-4.16,0.15,-3.08,-4.87,-5.87,-7.05,-8.06,-8.81,-8.46,-8.95,-7.25
2010-10-15 06:00,4.14,-3.18,7.15,-2.42,9.95,-2.04,11.61,-3.85,12.23,-4.19,12.15,-4.63,12.19,-2.96,9.95,-4.22,6.30,-4.54,0.20,-3.58,-2.48,-4.77,-4.62,-6.74,-3.91,-4.14
2010-10-15 07:00,-5.93,-9.09,-2.03,-7.45,-0.35,-5.30,2.56,-5.30,5.06,-6.77,6.13,-6.88,7.26,-7.18,5.12,-7.69,-1.42,-6.65,-6.85,-6.96,-10.98,-9.60,-14.36,-9.42,-9.81,-8.22
2010-10-15 08:00,4.51,-7.76,3.85,-7.63,6.56,-8.00,8.74,-6.54,11.35,-6.94,13.14,-8.82,11.41,-8.59,5.56,-9.23,-1.13,-6.57,-6.31,-9.20,-11.45,-7.96,-12.41,-8.97,-10.79,-7.36
2010-10-15 09:00,13.50,-13.71,16.11,-16.29,18.45,-15.72,20.51,-15.65,23.74,-17.85,20.68,-19.87,12.92,-17.83,6.36,-17.84,2.37,-18.77,-3.64,-19.25,-6.07,-17.66,-5.67,-14.32,-3.04,-11.17
2010-10-15 10:00,9.73,-6.36,10.38,-6.80,12.93,-8.46,15.91,-7.61,19.41,-11.08,11.03,-10.15,2.18,-9.78,-3.70,-10.32,-8.81,-13.55,-17.00,-17.98,-14.31,-14.30,-11.38,-8.57,-10.02,-7.14
2010-10-15 11:00,6.25,-1.85,6.91,-2.70,11.43,-5.77,15.97,-8.53,20.99,-14.06,15.33,-18.28,4.33,-19.46,-0.17,-21.17,-4.76,-21.13,-12.08,-18.45,-13.60,-13.89,-11.54,-9.45,-11.10,-8.80
2010-10-15 12:00,13.61,3.69,14.27,1.39,15.58,-1.36,18.16,-5.30,21.32,-11.57,21.29,-15.84,11.18,-13.23,1.00,-12.20,-4.21,-11.82,-9.95,-11.38,-8.84,-11.27,-9.00,-11.42,-9.15,-11.99
2010-10-15 13:00,21.74,-0.73,18.62,-2.88,14.81,-3.76,15.83,-7.32,16.17,-12.84,14.99,-18.17,7.70,-17.77,0.41,-11.22,-8.37,-10.72,-12.17,-13.06,-12.86,-13.57,-13.06,-13.21,-4.25,-13.49
2010-10-15 14:00,37.00,-8.22,32.16,-8.05,26.79,-7.82,22.61,-10.27,19.75,-14.10,16.63,-19.16,9.51,-20.47,0.66,-16.46,-5.77,-12.89,-8.36,-15.09,-8.54,-17.01,-5.96,-19.50,0.05,-22.66
2010-10-15 15:00,36.72,-14.13,36.22,-15.31,34.71,-15.12,32.07,-15.35,28.74,-15.69,24.07,-16.09,13.23,-17.12,-0.30,-12.36,-9.73,-10.70,-12.12,-11.07,-13.38,-10.29,-10.25,-8.14,-21.71,-2.27
2010-10-15 16:00,28.63,-15.30,26.90,-17.25,25.42,-18.62,24.30,-18.73,19.95,-18.41,15.13,-18.65,6.88,-15.30,-6.68,-8.26,-15.13,-6.73,-19.72,-6.69,-22.89,-4.69,-25.88,-8.77,-11.16,-12.98
2010-10-15 17:00,26.67,-18.99,24.89,-19.70,21.78,-19.35,21.20,-18.78,17.87,-18.07,11.21,-16.97,-0.77,-10.73,-12.96,-7.05,-20.61,-5.39,-25.78,-3.33,-30.60,-2.12,-37.74,-7.70,-32.05,-14.49
2010-10-15 18:00,20.53,-23.35,17.96,-22.73,15.42,-22.94,13.24,-22.94,9.99,-21.79,3.62,-19.14,-5.74,-12.99,-18.26,-8.15,-25.21,-4.94,-30.34,-3.39,-35.12,-1.23,-38.74,-6.74,-24.81,-8.88
2010-10-15 19:00,27.04,-19.19,24.28,-19.36,20.92,-18.55,17.50,-17.87,12.27,-15.21,0.01,-7.28,-16.80,-1.28,-28.26,3.86,-32.56,5.44,-34.62,9.01,-33.14,8.18,-29.87,4.02,-15.27,-4.07
2010-10-15 20:00,24.91,-25.94,22.09,-26.96,19.45,-25.74,14.17,-22.57,1.34,-13.03,-15.07,-8.38,-24.97,-2.89,-32.05,2.57,-35.00,1.61,-35.65,0.60,-32.88,-2.15,-30.57,-6.58,-26.10,-11.65
2010-10-15 21:00,23.59,-32.56,20.17,-32.60,16.17,-31.36,10.91,-28.60,-1.01,-20.06,-15.02,-12.21,-23.97,-3.86,-29.08,-1.26,-29.61,-4.85,-30.24,-7.73,-30.26,-12.01,-28.54,-15.47,-22.80,-20.27
2010-10-15 22:00,16.42,-33.68,14.98,-34.09,9.63,-31.05,2.80,-25.72,-8.68,-14.35,-18.62,-8.36,-21.66,-4.65,-25.36,-1.55,-29.47,-3.87,-29.59,-8.90,-29.77,-13.01,-29.11,-14.59,-26.44,-16.63
2010-10-15 23:00,24.49,-27.00,22.62,-27.74,18.14,-28.09,13.60,-25.65,6.27,-17.14,-3.32,-5.11,-6.61,0.91,-8.26,3.04,-13.77,3.75,-17.16,-0.03,-19.53,-4.46,-20.34,-7.08,-13.73,-10.91
2010-10-16 00:00,25.25,-20.22,24.98,-22.17,22.03,-22.40,18.54,-21.11,9.95,-18.37,1.94,-5.68,-2.41,8.78,-5.73,14.17,-7.08,10.56,-6.61,6.74,-8.56,5.55,-9.58,1.83,-12.58,-0.38
2010-10-16 01:00,30.61,-20.77,30.31,-22.62,29.72,-21.65,26.00,-22.09,20.08,-21.40,14.25,-18.49,9.12,-8.93,5.81,3.33,2.00,7.54,3.48,5.26,2.96,2.72,1.24,-1.41,2.23,-3.42
2010-10-16 02:00,19.85,-16.26,17.63,-17.21,14.44,-17.71,10.55,-19.03,7.49,-19.59,7.02,-16.50,6.51,-9.27,3.47,0.58,-1.58,5.16,-4.11,3.81,-5.55,-0.24,-9.42,-3.43,-10.19,-5.83
2010-10-16 03:00,27.08,-11.38,24.85,-11.91,21.52,-11.20,19.52,-12.19,14.97,-12.66,12.49,-8.38,12.61,-4.08,12.51,0.99,8.00,6.56,1.34,5.48,-2.64,1.95,-5.08,-0.42,-1.51,-5.63
2010-10-16 04:00,32.27,-13.84,28.68,-12.58,23.12,-11.68,19.50,-12.51,14.00,-14.71,9.51,-14.65,6.25,-10.90,7.50,-5.13,9.37,-0.75,6.54,3.33,1.83,1.25,-2.39,-1.83,-4.10,-3.47
2010-10-16 05:00,17.72,-24.78,12.61,-25.83,8.28,-25.61,4.27,-25.41,0.41,-23.91,-4.03,-23.31,-6.42,-22.23,-6.93,-17.90,-4.70,-11.54,-2.26,-7.72,-7.74,-6.38,-12.70,-6.87,-9.75,-14.24
2010-10-16 06:00,18.46,-18.32,16.79,-18.28,13.99,-17.21,10.73,-17.83,6.07,-17.19,3.58,-18.64,-0.09,-20.73,-1.66,-19.62,-0.14,-12.21,2.11,-5.53,2.32,0.25,0.78,1.26,-4.10,1.95
2010-10-16 07:00,7.98,-26.01,11.37,-28.05,14.77,-29.37,17.35,-30.40,18.19,-30.78,18.35,-30.63,16.76,-30.15,11.96,-25.39,6.17,-15.71,3.46,-9.52,1.55,-7.57,-1.30,-6.72,-11.45,-10.88
2010-10-16 08:00,-11.60,-18.31,-11.15,-18.07,-7.32,-18.01,-4.21,-17.96,-1.73,-19.74,-0.82,-22.18,-1.53,-25.51,-0.86,-24.59,4.72,-18.62,4.67,-11.56,-0.14,-7.84,4.02,-6.03,3.02,-0.38
2010-10-16 09:00,-16.87,-16.28,-17.47,-14.89,-17.36,-13.09,-15.84,-12.97,-12.78,-13.13,-9.99,-13.79,-9.31,-12.87,-6.33,-14.20,-5.52,-12.30,-7.42,-8.58,-5.57,-4.51,-4.56,-3.70,-5.64,-3.18
2010-10-16 10:00,-13.17,-21.56,-16.18,-20.14,-18.59,-18.23,-22.47,-16.33,-26.10,-13.83,-26.73,-10.16,-24.11,-9.51,-19.34,-15.64,-13.51,-16.36,-8.91,-14.62,-9.15,-11.99,-10.13,-9.67,-9.48,-8.65
2010-10-16 11:00,-11.37,-22.40,-11.17,-22.35,-11.77,-19.91,-12.47,-17.10,-10.70,-14.93,-9.18,-9.71,-10.74,-6.10,-13.11,-5.42,-12.41,-11.88,-7.91,-13.40,-6.18,-12.18,-6.36,-11.19,-8.47,-9.29
2010-10-16 12:00,-8.25,-31.81,-9.82,-31.42,-9.64,-29.50,-10.32,-27.51,-10.22,-25.30,-8.69,-21.94,-5.93,-16.68,-6.18,-15.82,-10.45,-20.89,-9.29,-21.29,-6.68,-20.95,-6.39,-20.87,-6.52,-15.71
2010-10-16 13:00,4.61,-36.03,3.87,-35.61,3.92,-34.35,4.07,-31.60,6.08,-28.11,6.60,-24.11,1.34,-22.09,-9.80,-19.87,-13.06,-18.31,-9.93,-17.62,-7.99,-17.48,-6.18,-16.54,-9.33,-16.09
2010-10-16 14:00,10.72,-33.03,10.40,-33.01,9.69,-31.97,8.22,-31.56,6.79,-30.20,8.57,-26.98,11.22,-23.52,8.50,-21.28,-0.75,-16.24,-5.46,-12.18,-5.54,-11.16,-3.07,-10.35,-5.69,-8.08
2010-10-16 15:00,0.35,-20.08,0.22,-19.29,0.47,-18.69,0.17,-18.36,1.03,-16.66,1.26,-15.66,3.02,-13.80,6.08,-11.05,1.01,-6.78,-5.53,-1.38,-8.11,2.15,-6.25,3.30,-5.39,5.01
2010-10-16 16:00,2.22,-33.49,0.83,-32.64,0.30,-30.08,-0.49,-29.48,-0.93,-27.94,0.60,-26.04,3.61,-24.56,7.04,-22.74,5.92,-18.48,2.31,-12.03,-0.19,-5.88,0.47,-4.55,-5.42,-9.77
2010-10-16 17:00,-6.27,-38.00,-7.38,-37.38,-7.70,-33.73,-8.21,-33.04,-6.72,-30.64,-4.66,-27.66,-1.25,-25.74,0.48,-25.97,0.99,-16.88,1.25,-10.88,1.56,-7.25,1.82,-5.62,-1.33,-5.89
2010-10-16 18:00,-16.62,-32.02,-17.04,-31.62,-17.14,-29.47,-17.29,-27.85,-15.63,-26.02,-13.81,-22.58,-11.52,-19.32,-7.37,-17.82,-1.91,-15.11,2.92,-6.55,3.53,-1.07,2.51,1.03,-3.05,2.66
2010-10-16 19:00,-26.75,-40.96,-26.53,-39.54,-26.04,-33.27,-27.87,-33.79,-28.16,-30.23,-26.32,-26.48,-24.65,-22.15,-21.03,-19.55,-13.52,-12.72,-6.93,-10.31,-3.10,-5.88,-4.12,-2.33,-9.53,-1.59
2010-10-16 20:00,-34.17,-50.27,-34.20,-47.99,-30.56,-35.29,-34.74,-38.47,-34.58,-34.68,-32.84,-29.50,-30.63,-25.22,-27.15,-20.68,-18.63,-7.94,-13.18,-9.92,-3.60,-9.56,-0.48,-3.78,5.80,1.56
2010-10-16 21:00,-35.44,-57.81,-35.77,-51.56,-34.25,-40.20,-35.81,-39.09,-34.72,-34.92,-32.65,-29.44,-30.39,-24.63,-26.29,-20.44,-16.86,-11.60,-8.54,-13.37,-2.29,-14.49,-0.91,-13.16,-4.18,-9.00
2010-10-16 22:00,-29.62,-51.98,-30.46,-49.41,-28.33,-40.16,-29.93,-40.73,-30.14,-36.73,-28.03,-31.76,-26.68,-28.14,-24.12,-24.71,-17.21,-20.54,-10.98,-23.02,-2.08,-25.04,0.96,-24.38,1.86,-21.00
2010-10-16 23:00,-18.91,-36.01,-20.86,-33.55,-20.37,-28.73,-21.22,-27.20,-18.92,-23.63,-17.00,-18.71,-13.07,-17.17,-9.44,-20.39,-7.37,-23.65,-5.28,-26.58,-0.80,-24.05,5.46,-17.58,6.48,-12.81
2010-10-17 00:00,-17.87,-40.70,-18.89,-38.60,-17.42,-35.37,-17.47,-33.41,-17.32,-29.93,-16.18,-25.55,-12.60,-20.99,-8.83,-18.55,-5.56,-19.07,-4.34,-24.76,-2.53,-26.73,4.66,-22.80,8.24,-13.14
2010-10-17 01:00,-13.13,-35.49,-13.33,-34.41,-11.18,-29.21,-13.70,-25.88,-12.60,-24.63,-10.30,-21.05,-6.00,-16.80,-0.67,-13.61,2.03,-15.44,-0.89,-19.40,0.17,-21.28,6.45,-18.13,9.43,-10.40
2010-10-17 02:00,-15.33,-32.90,-15.89,-32.02,-14.86,-30.16,-15.17,-27.65,-14.50,-23.82,-10.68,-19.71,-7.03,-15.75,-0.83,-13.45,-0.01,-15.19,-5.97,-18.36,-5.89,-15.73,0.57,-11.07,0.51,-5.78
2010-10-17 03:00,-5.30,-30.13,-5.08,-30.90,-6.46,-29.73,-6.12,-25.47,-4.51,-22.00,-0.64,-18.81,4.84,-16.51,11.81,-15.44,14.38,-16.79,8.00,-17.37,7.31,-14.97,11.36,-12.76,13.60,-4.63
2010-10-17 04:00,-5.84,-30.07,-7.99,-28.72,-7.85,-26.70,-7.17,-25.05,-5.89,-20.83,-2.53,-16.95,2.75,-15.02,8.05,-16.10,11.05,-17.12,6.92,-16.53,6.54,-12.27,8.77,-11.74,7.01,-7.04
2010-10-17 05:00,-9.04,-22.15,-9.39,-21.31,-10.28,-20.01,-11.15,-17.35,-9.95,-14.29,-7.15,-11.72,-1.58,-10.44,4.08,-11.31,5.60,-12.65,2.92,-10.92,1.56,-7.25,2.83,-3.35,4.03,-2.07
2010-10-17 06:00,-17.69,-21.40,-16.81,-20.11,-18.12,-17.37,-18.88,-16.86,-18.09,-15.28,-15.69,-12.40,-11.65,-11.25,-5.94,-10.86,-2.28,-12.72,-3.12,-10.88,-3.73,-5.13,-3.71,-2.31,-3.78,-1.71
2010-10-17 07:00,-19.40,-18.67,-19.78,-17.01,-18.82,-15.28,-19.49,-14.02,-18.85,-11.54,-16.86,-9.41,-12.49,-7.22,-7.31,-8.96,-3.33,-11.98,-2.82,-11.21,-1.85,-6.25,-0.12,-5.03,-0.64,-1.75
2010-10-17 08:00,-19.36,-22.82,-20.25,-22.24,-19.92,-21.21,-20.02,-20.51,-20.07,-17.82,-17.17,-14.49,-12.58,-11.62,-8.19,-11.71,-5.11,-16.65,-4.64,-17.56,-1.43,-13.52,2.51,-11.66,2.65,-12.14
2010-10-17 09:00,-20.99,-22.56,-21.01,-22.15,-20.39,-20.31,-20.72,-19.88,-20.48,-17.11,-19.04,-15.24,-16.39,-14.69,-10.77,-15.05,-6.26,-19.17,-4.29,-22.04,-4.92,-21.28,0.37,-15.81,1.33,-14.81
2010-10-17 10:00,-19.98,-23.93,-19.40,-23.04,-19.15,-21.72,-20.28,-19.96,-20.77,-17.92,-19.94,-17.16,-17.44,-17.17,-12.83,-17.31,-9.80,-19.14,-6.41,-24.10,-5.31,-25.76,-0.86,-23.13,5.32,-17.10
2010-10-17 11:00,-15.94,-21.32,-17.33,-20.47,-18.03,-18.38,-18.95,-17.71,-18.91,-15.31,-18.10,-14.14,-15.65,-13.64,-14.22,-15.00,-12.57,-17.86,-12.66,-22.98,-10.31,-25.01,-4.51,-24.18,2.99,-19.12
2010-10-17 12:00,-15.64,-19.47,-16.81,-19.38,-17.10,-18.01,-19.06,-17.33,-19.66,-15.62,-19.42,-13.89,-18.37,-13.59,-17.18,-14.81,-17.29,-17.34,-18.35,-20.55,-19.09,-22.33,-12.57,-23.27,-5.39,-18.19
2010-10-17 13:00,0.28,-15.11,-1.36,-15.58,-1.63,-14.62,-3.31,-13.12,-3.83,-12.02,-4.37,-10.51,-3.93,-8.41,-2.01,-7.13,-0.35,-6.03,-1.16,-7.20,-3.56,-10.07,-2.35,-12.12,5.02,-9.17
2010-10-17 14:00,-3.01,-27.60,-3.04,-24.59,-3.77,-22.41,-4.58,-20.66,-5.38,-19.33,-6.11,-16.42,-5.23,-13.67,-3.72,-13.14,-3.54,-13.40,-3.86,-11.93,-1.69,-15.88,6.36,-15.65,8.57,-8.47
2010-10-17 15:00,-3.15,-20.57,-3.98,-16.95,-2.43,-13.29,-1.82,-10.72,-1.32,-8.81,-0.35,-6.03,2.30,-4.02,3.20,-4.28,2.92,-4.37,3.56,-3.35,5.74,-8.03,10.46,-7.09,10.93,-1.13
2010-10-17 16:00,-6.15,-21.74,-6.07,-16.20,-3.48,-12.54,-2.04,-9.22,-0.23,-6.83,2.24,-6.01,3.01,-5.79,1.67,-5.45,-1.78,-3.94,-2.22,-5.32,-0.97,-2.05,-1.42,0.22,-3.64,-0.73
2010-10-17 17:00,-8.64,-19.22,-9.94,-15.02,-5.51,-9.80,-3.33,-7.61,-1.94,-6.28,0.95,-5.14,2.70,-5.78,2.11,-4.81,0.63,-1.48,-1.39,-1.33,-0.03,0.10,4.93,2.04,3.50,1.94
2010-10-17 18:00,-12.71,-24.97,-13.47,-19.05,-8.83,-15.64,-4.56,-12.75,-1.77,-11.95,0.60,-12.62,-0.26,-12.14,-3.81,-9.93,-6.33,-5.87,-6.11,-5.18,-3.03,-5.76,1.16,-6.22,-1.24,-7.64
2010-10-17 19:00,-27.81,-16.92,-27.05,-10.15,-22.42,-8.51,-17.95,-7.43,-15.20,-7.58,-12.69,-7.28,-11.74,-8.05,-13.14,-8.24,-14.68,-3.59,-12.45,0.59,-12.94,-1.32,-8.98,-2.78,-5.86,-1.68
2010-10-17 20:00,-29.62,-18.59,-29.78,-11.14,-24.19,-8.50,-20.62,-7.89,-17.46,-8.75,-14.54,-9.16,-13.07,-9.57,-13.34,-9.34,-16.45,-6.49,-13.87,-2.42,-10.18,-1.88,-7.70,-5.43,-5.72,-5.80
2010-10-17 21:00,-30.59,-17.41,-30.07,-9.77,-25.77,-9.16,-23.42,-9.73,-21.50,-9.91,-20.17,-10.57,-18.45,-11.12,-18.23,-11.16,-18.91,-9.17,-17.32,-5.28,-12.48,-4.72,-11.30,-8.86,-11.03,-9.41
2010-10-17 22:00,-19.27,-19.88,-16.55,-11.92,-13.45,-11.87,-13.28,-12.44,-13.75,-12.27,-13.66,-12.24,-13.93,-12.00,-14.03,-11.30,-12.65,-10.29,-10.51,-7.59,-6.06,-9.33,-2.72,-14.10,-1.73,-15.37
2010-10-17 23:00,-19.59,-27.46,-20.87,-20.45,-18.56,-15.83,-18.27,-12.83,-19.51,-12.15,-19.36,-12.31,-20.42,-10.43,-20.93,-9.02,-20.64,-8.93,-19.41,-8.48,-17.16,-8.35,-10.89,-12.80,-5.67,-15.05
2010-10-18 00:00,-2.37,-19.30,-9.16,-15.94,-9.31,-7.45,-4.24,-6.62,-2.77,-8.49,-3.60,-9.56,-4.55,-8.07,-5.65,-7.13,-7.51,-5.38,-7.74,-4.20,-7.76,-3.06,-5.68,-4.13,1.37,-9.49
2010-10-18 01:00,-11.70,-19.79,-13.77,-11.13,-10.66,-4.20,-5.53,-6.47,-4.81,-8.25,-5.11,-10.10,-6.78,-10.47,-7.18,-8.72,-7.19,-7.58,-7.36,-4.81,-6.21,-3.76,-4.12,-5.97,-1.34,-7.67
2010-10-18 02:00,-6.95,-13.12,-5.04,-5.29,-1.43,-3.01,-1.95,-4.82,-2.69,-5.87,-3.33,-6.16,-3.09,-4.84,-3.73,-2.94,-3.91,-1.23,-4.63,-3.10,-5.24,-3.48,-5.71,-3.30,-9.53,-1.59
2010-10-18 03:00,-8.67,-16.22,-5.21,-10.86,-3.18,-9.96,-3.55,-10.48,-4.28,-9.76,-5.64,-7.55,-5.58,-6.28,-5.20,-3.26,-6.48,-4.25,-7.94,-2.07,-10.78,0.24,-7.87,3.88,-4.35,8.64
2010-10-18 04:00,-5.46,-12.18,-0.42,-9.07,3.89,-6.69,2.05,-6.80,0.33,-5.52,-0.41,-4.38,0.79,-3.10,0.06,-1.65,-2.02,0.15,-2.09,5.85,-1.74,10.42,-4.25,10.85,-2.92,13.10
2010-10-18 05:00,-4.95,-10.68,-2.16,-9.15,4.58,-9.09,5.20,-10.16,3.69,-7.06,3.21,-5.74,2.41,-3.68,4.84,-2.36,5.85,-3.00,6.95,1.16,7.65,5.63,6.63,6.27,5.83,4.69
2010-10-18 06:00,-16.90,-12.54,-13.30,-12.03,-7.63,-11.13,-3.51,-11.72,-4.56,-10.57,-4.83,-8.56,-4.39,-7.19,-2.66,-4.51,-1.03,-4.77,0.13,-5.16,1.35,-1.80,2.25,0.13,3.49,-3.47
2010-10-18 07:00,-8.00,-10.93,-10.42,-7.56,-7.25,-6.66,-6.13,-8.73,-0.84,-12.31,-0.18,-9.52,-0.58,-6.31,-0.06,-5.95,2.00,-5.15,2.73,-7.33,6.61,-6.01,8.18,-4.21,9.63,-2.02
2010-10-18 08:00,-11.30,-15.00,-14.85,-10.60,-15.61,-9.78,-16.35,-11.55,-13.90,-13.56,-10.52,-13.00,-11.61,-9.57,-12.22,-8.18,-10.60,-7.30,-8.87,-8.26,-5.02,-10.07,-0.13,-8.98,0.58,-6.39
2010-10-18 09:00,-20.61,-12.67,-23.43,-6.82,-23.17,-3.00,-23.91,-4.78,-24.44,-6.91,-23.70,-6.59,-24.10,-4.10,-24.09,-2.33,-22.98,-1.49,-20.60,-2.89,-19.18,-7.48,-14.00,-7.76,-7.34,-7.41
2010-10-18 10:00,-10.94,-21.34,-12.72,-16.23,-10.83,-10.49,-12.19,-11.92,-14.26,-12.31,-14.25,-11.26,-13.52,-9.81,-13.43,-8.32,-13.43,-5.41,-12.19,-6.10,-12.05,-10.95,-6.59,-13.65,-0.83,-13.45
2010-10-18 11:00,-19.95,-24.76,-19.89,-18.81,-18.05,-13.60,-20.49,-14.51,-23.87,-12.88,-24.72,-10.31,-23.93,-7.59,-23.61,-5.83,-23.40,-2.55,-22.18,-0.64,-22.60,-5.34,-18.76,-14.01,-10.96,-16.56
2010-10-18 12:00,-17.19,-21.68,-17.54,-17.20,-15.26,-12.07,-17.46,-9.48,-18.81,-5.50,-18.24,-2.42,-17.79,-0.73,-18.33,1.51,-17.98,1.40,-17.09,2.28,-18.56,0.50,-16.31,-5.51,-12.23,-9.23
2010-10-18 13:00,-18.05,-25.57,-19.04,-23.56,-16.63,-17.46,-17.36,-13.82,-17.42,-8.53,-16.47,-4.62,-15.27,-4.07,-14.70,-2.45,-17.16,-0.76,-22.66,-0.78,-25.19,-2.85,-22.32,-3.80,-20.48,-3.69
2010-10-18 14:00,-9.22,-21.16,-11.36,-19.17,-10.37,-14.63,-9.41,-10.71,-8.51,-6.60,-7.44,-1.61,-5.84,-0.32,-4.97,1.38,-4.08,1.53,-5.17,3.51,-10.07,5.02,-14.14,6.14,-15.46,5.66
2010-10-18 15:00,-7.23,-25.58,-7.90,-24.32,-8.88,-20.54,-8.41,-13.85,-6.96,-8.76,-4.84,-5.24,-3.43,-2.54,-2.59,-2.20,-1.59,-1.70,-1.77,0.01,-5.87,3.41,-10.58,6.43,-12.31,5.94
2010-10-18 16:00,-4.08,-17.71,-6.06,-16.61,-7.09,-15.56,-8.12,-10.13,-8.83,-4.40,-6.70,-0.57,-4.77,1.75,-2.64,1.95,-1.91,2.68,-1.13,3.94,-3.03,6.93,-7.03,11.82,-11.19,12.91
2010-10-18 17:00,-3.87,-18.79,-5.23,-17.31,-6.58,-13.33,-5.38,-6.64,-0.77,-3.86,2.13,-2.72,3.05,-1.93,5.17,-2.06,7.02,-0.17,9.80,5.72,13.93,10.55,13.49,12.09,7.50,11.93
2010-10-18 18:00,-11.87,-17.03,-14.23,-16.04,-14.93,-11.77,-15.32,-6.79,-12.00,-3.86,-8.01,-2.92,-7.25,-2.29,-5.95,-2.12,-4.20,-2.04,0.34,1.35,5.57,5.97,5.65,7.13,0.12,4.30
2010-10-18 19:00,-14.03,-13.49,-16.82,-9.92,-18.26,-5.24,-14.96,1.02,-9.82,-0.94,-7.61,-2.49,-4.60,-2.46,-3.14,-3.19,-0.92,-3.70,4.38,-3.32,10.88,0.52,8.40,1.89,1.81,0.94
2010-10-18 20:00,-18.41,-10.17,-21.77,-5.72,-24.00,0.61,-21.26,7.01,-14.02,6.80,-12.27,2.52,-10.22,0.09,-7.90,-1.12,-4.43,-2.31,-0.26,-3.82,5.14,-2.69,3.82,-2.44,-1.28,-1.72
2010-10-18 21:00,-15.58,-12.79,-18.41,-10.17,-21.12,-4.70,-18.69,4.21,-13.04,5.21,-9.79,1.14,-7.79,-2.96,-6.74,-5.89,-4.97,-7.35,-1.68,-8.28,2.82,-9.49,3.94,-9.38,3.46,-8.79
2010-10-18 22:00,-18.31,-15.24,-20.02,-12.19,-21.56,-8.26,-22.22,-0.13,-16.69,3.43,-10.91,2.49,-9.04,0.32,-8.10,-3.68,-7.41,-7.53,-5.09,-9.47,-1.10,-11.76,0.45,-14.64,-0.78,-12.50
2010-10-18 23:00,-25.08,-16.66,-26.13,-13.01,-27.58,-6.87,-25.70,-0.71,-18.89,0.93,-14.85,-1.55,-12.03,-4.49,-12.30,-8.62,-13.13,-11.15,-12.50,-14.09,-9.26,-15.24,-6.95,-19.68,-5.92,-17.09
2010-10-19 00:00,-21.98,-11.50,-22.05,-7.26,-20.69,-1.15,-18.45,3.76,-14.84,4.59,-11.20,1.68,-10.04,-0.90,-12.44,-5.23,-14.84,-8.10,-14.28,-8.26,-10.51,-10.50,-9.56,-13.46,-10.72,-7.96
2010-10-19 01:00,-18.05,-13.60,-17.30,-9.33,-12.81,-3.57,-7.84,-0.58,-6.21,-2.30,-5.89,-5.23,-9.11,-6.67,-11.34,-6.89,-13.23,-8.27,-13.66,-7.87,-10.28,-8.05,-10.32,-11.18,-8.87,-7.54
2010-10-19 02:00,-14.09,-8.20,-14.95,-5.54,-10.77,-0.18,-5.40,3.24,0.82,4.40,1.13,0.43,-1.02,-0.81,-5.19,0.70,-8.22,1.81,-8.61,-0.08,-8.09,-3.36,-9.60,-1.71,-6.98,2.58
2010-10-19 03:00,-10.24,-9.28,-8.10,-5.13,-2.82,-0.70,3.60,0.51,6.62,-0.60,4.08,-2.99,-0.99,-1.64,-3.97,0.42,-5.23,1.20,-4.76,2.80,-6.54,1.04,-6.49,6.67,-5.94,10.57
2010-10-19 04:00,-8.09,-10.23,-4.13,-5.55,1.91,-3.40,7.57,-4.28,8.23,-7.31,4.84,-6.00,1.20,-2.36,0.23,0.27,-0.51,2.14,-2.12,3.03,-2.35,0.57,-4.50,5.89,-6.00,11.49
2010-10-19 05:00,-1.52,-4.49,-0.50,-5.14,6.60,-3.41,12.53,-3.79,14.04,-5.44,10.67,-2.04,7.83,1.72,7.47,5.16,6.22,6.26,5.50,7.30,6.68,9.72,9.88,14.17,12.64,15.79
2010-10-19 06:00,-7.36,-7.73,-2.63,-8.24,1.97,-10.15,2.15,-12.59,-0.98,-7.46,-2.66,-4.51,-2.87,-1.97,-3.78,1.21,-6.13,3.24,-2.34,4.53,1.90,8.24,6.24,9.80,7.53,7.47
2010-10-19 07:00,-15.19,-6.54,-13.12,-7.20,-9.54,-9.18,-5.47,-13.95,-6.93,-16.45,-7.11,-9.32,-8.98,-4.97,-10.18,-1.88,-8.33,2.19,-4.18,9.52,-1.33,6.80,2.44,0.91,-0.48,-0.14
2010-10-19 08:00,-27.95,-3.75,-24.53,-5.89,-23.01,-8.26,-18.53,-12.28,-17.03,-14.97,-21.82,-9.90,-22.33,-6.30,-22.44,-2.27,-22.14,2.49,-16.82,5.68,-10.69,4.63,-9.22,-0.87,-7.87,-1.94
2010-10-19 09:00,-20.28,-6.54,-19.43,-7.34,-18.30,-9.10,-15.43,-12.23,-14.90,-15.51,-17.02,-11.02,-17.04,-7.69,-16.62,-4.45,-16.54,-0.37,-11.59,1.25,-2.73,-2.45,-1.37,-6.11,-1.75,-4.77